This demonstration page uses our WeatherBlox Daily Observations layout. Learn more.

Left ArrowRight Arrow

44.8408, -93.29828

Hourly Observations for September 13, 2017

Temp ( °F °C ) Dew Point ( °F °C ) Humidity (%) Winds ( mph kmh ) Pressure ( in mb ) Visibility ( mi km ) Precip ( " mm )
12:53 am 00:53 Clear 70 21.1 66 18.9 87 87 SE 6 9 29.80 1009 10 16 0.00 0.00
1:53 am 01:53 Clear 69 20.6 66 18.9 90 90 SE 5 7 29.79 1009 9 14 0.00 0.00
2:53 am 02:53 Clear 67 19.4 65 18.3 93 93 SE 7 11 29.78 1008 9 14 0.00 0.00
3:53 am 03:53 Clear 67 19.4 64 17.8 91 91 SE 6 9 29.76 1008 9 14 0.00 0.00
4:53 am 04:53 Mostly Clear 66 18.9 62 16.7 87 87 SSE 6 9 29.77 1008 10 16 0.00 0.00
5:53 am 05:53 Mostly Clear 65 18.3 63 17.2 93 93 SE 5 7 29.76 1008 10 16 0.00 0.00
6:53 am 06:53 Mostly Sunny 65 18.3 62 16.7 90 90 SE 5 7 29.75 1008 9 14 0.00 0.00
7:53 am 07:53 Mostly Sunny 66 18.9 62 16.7 87 87 SE 6 9 29.75 1007 10 16 0.00 0.00
8:53 am 08:53 Mostly Sunny 70 21.1 63 17.2 79 79 SSW 5 7 29.75 1007 10 16 0.00 0.00
9:53 am 09:53 Mostly Sunny 75 23.9 64 17.8 69 69 S 8 13 29.73 1007 10 16 0.00 0.00
10:53 am 10:53 Mostly Sunny 79 26.1 64 17.8 60 60 S 14 22 29.72 1006 10 16 0.00 0.00
11:53 am 11:53 Mostly Sunny 81 27.2 63 17.2 54 54 SSW 12 19 29.71 1006 10 16 0.00 0.00
12:53 pm 12:53 Partly Cloudy 83 28.3 62 16.7 49 49 SW 12 19 29.69 1006 10 16 0.00 0.00
1:53 pm 13:53 Partly Cloudy 85 29.4 63 17.2 48 48 S 15 24 29.67 1005 10 16 0.00 0.00
2:53 pm 14:53 Partly Cloudy 86 30 64 17.8 48 48 S 12 19 29.65 1004 10 16 0.00 0.00
3:53 pm 15:53 Mostly Cloudy 85 29.4 64 17.8 50 50 S 12 19 29.65 1004 10 16 0.00 0.00
4:53 pm 16:53 Mostly Cloudy 85 29.4 65 18.3 51 51 S 10 17 29.64 1004 10 16 0.00 0.00
5:53 pm 17:53 Mostly Cloudy 86 30 66 18.9 51 51 VRB 7 11 29.64 1004 10 16 0.00 0.00
6:53 pm 18:53 Partly Cloudy 83 28.3 65 18.3 55 55 SSE 7 11 29.64 1004 10 16 0.00 0.00
7:53 pm 19:53 Mostly Clear 79 26.1 66 18.9 65 65 SSE 7 11 29.65 1004 10 16 0.00 0.00
8:53 pm 20:53 Clear 78 25.6 66 18.9 67 67 SSE 6 9 29.65 1004 10 16 0.00 0.00
9:53 pm 21:53 Clear 79 26.1 66 18.9 65 65 S 8 13 29.66 1004 10 16 0.00 0.00
10:53 pm 22:53 Clear 77 25 66 18.9 69 69 S 6 9 29.66 1004 10 16 0.00 0.00
11:53 pm 23:53 Clear 76 24.4 65 18.3 69 69 S 7 11 29.66 1005 10 16 0.00 0.00

Powered by AerisWeather